Location: Ackerson Creek
(37.8210°N, 119.8757°W)
Time: 16:19:24
(UTC+00:00)

Cosmos 1484 Rocket - Pass Details

Date: 13 April 2024
Orbit: 480 x 524 km, 97.6° (Epoch: 23 May)

Event Time Altitude Azimuth Distance (km) Brightness Sun altitude
Rises 12:57:47 0° 360° (N) 2,568 6.5 -6.3°
Reaches altitude 10° 13:00:02 10° 349° (N) 1,676 5.4 -5.8°
Maximum altitude 13:03:10 29° 288° (WNW) 918 3.5 -5.2°
Drops below altitude 10° 13:06:16 10° 227° (SW) 1,653 4.7 -4.7°
Sets 13:08:29 0° 216° (SW) 2,525 5.7 -4.2°
